Weather History for Sedalia, MO

Change the Weather History Date:

Friday, March 8, 2013

  Actual Average Record
Temperature  
Mean Temperature 41 °F 42 °F  
Max Temperature 48 °F 52 °F 83 °F (1974)
Min Temperature 33 °F 32 °F 6 °F (1967)
Degree Days  
Heating Degree Days 24 23  
Month to date heating degree days 261 118  
Since 1 July heating degree days 3699 3735  
Cooling Degree Days 0 0  
Month to date cooling degree days 0 0  
Year to date cooling degree days 1 0  
Moisture  
Dew Point 30 °F    
Average Humidity 68    
Maximum Humidity 82    
Minimum Humidity 54    
Precipitation  
Precipitation 0.08 in 0.09 in 1.36 in (1999)
Month to date precipitation 0.08 0.40  
Year to date precipitation 5.35 4.00  
Sea Level Pressure  
Sea Level Pressure 30.22 in    
Wind  
Wind Speed 9 mph (ESE)    
Max Wind Speed 13 mph    
Max Gust Speed 16 mph    
Visibility 10 miles    
Events Rain    
T = Trace of Precipitation, MM = Missing Value Source: NWS Daily Summary

Daily Weather History Graph

Daily Weather History Graph

Search for Another Location

Airport:

Trip Planner

Search our weather history database for the weather conditions in past years. The results will help you decide how hot, cold, wet, or windy it might be!

Date:

Astronomy

Mar. 08, 2013 Rise Set
Actual Time 6:34 AM CST 6:13 PM CST
Civil Twilight 6:07 AM CST 6:39 PM CST
Nautical Twilight 5:37 AM CST 7:10 PM CST
Astronomical Twilight 5:06 AM CST 7:41 PM CST
Moon 4:17 AM CST (3/8) 3:10 PM CST (3/8)
Length of Visible Light 12h 31m
Length of Day
11h 38m
Waning Crescent, 11% of the Moon is Illuminated
Mar 8
Waning Crescent
Mar 11
New
Mar 19
First Quarter
Mar 27
Full
Apr 2
Last Quarter

Hourly Weather History & Observations

Time (CST) Temp. Windchill Dew Point Humidity Pressure Visibility Wind Dir Wind Speed Gust Speed Precip Events Conditions
12:53 AM 35.1 °F 29.3 °F 26.1 °F 70% 30.28 in 10.0 mi ESE 6.9 mph - N/A   Clear
1:53 AM 34.0 °F 27.2 °F 26.1 °F 73% 30.29 in 10.0 mi ESE 8.1 mph - N/A   Clear
2:53 AM 35.1 °F 27.4 °F 27.0 °F 72% 30.27 in 10.0 mi SE 10.4 mph - N/A   Clear
3:53 AM 34.0 °F 26.6 °F 26.1 °F 73% 30.27 in 10.0 mi ESE 9.2 mph - N/A   Clear
4:53 AM 34.0 °F 27.2 °F 28.0 °F 79% 30.27 in 10.0 mi SE 8.1 mph - N/A   Clear
5:53 AM 33.1 °F 26.1 °F 28.0 °F 82% 30.27 in 10.0 mi SE 8.1 mph - N/A   Clear
6:53 AM 34.0 °F 27.2 °F 28.9 °F 82% 30.29 in 9.0 mi SE 8.1 mph - N/A   Clear
7:53 AM 36.0 °F 29.0 °F 30.0 °F 79% 30.28 in 9.0 mi SE 9.2 mph - N/A   Clear
9:53 AM 41.0 °F 34.7 °F 30.9 °F 67% 30.28 in 10.0 mi SE 10.4 mph - N/A   Clear
10:53 AM 42.1 °F 36.1 °F 30.9 °F 65% 30.27 in 10.0 mi ESE 10.4 mph - N/A   Clear
11:53 AM 44.1 °F 40.1 °F 30.9 °F 60% 30.25 in 10.0 mi ESE 6.9 mph - N/A   Clear
12:53 PM 46.0 °F 41.4 °F 32.0 °F 58% 30.24 in 10.0 mi East 9.2 mph - N/A   Clear
1:53 PM 46.9 °F - 32.0 °F 56% 30.22 in 10.0 mi ESE 9.2 mph - N/A   Clear
2:53 PM 48.0 °F - 32.0 °F 54% 30.19 in 10.0 mi ESE 11.5 mph - N/A   Clear
3:53 PM 46.9 °F - 32.0 °F 56% 30.18 in 10.0 mi East 10.4 mph - N/A   Overcast
4:53 PM 46.9 °F - 32.0 °F 56% 30.17 in 10.0 mi ESE 9.2 mph - N/A   Mostly Cloudy
5:53 PM 46.0 °F 41.4 °F 32.0 °F 58% 30.16 in 10.0 mi ESE 9.2 mph - N/A   Clear
6:53 PM 45.0 °F 39.7 °F 32.0 °F 60% 30.15 in 10.0 mi SE 10.4 mph - N/A   Overcast
7:53 PM 45.0 °F 39.7 °F 32.0 °F 60% 30.16 in 10.0 mi ESE 10.4 mph - N/A   Overcast
8:53 PM 44.1 °F 39.0 °F 32.0 °F 63% 30.14 in 10.0 mi ESE 9.2 mph - 0.00 in   Overcast
9:53 PM 43.0 °F 37.7 °F 32.0 °F 65% 30.13 in 9.0 mi SE 9.2 mph - 0.02 in Rain Light Rain
10:53 PM 41.0 °F 35.2 °F 34.0 °F 76% 30.11 in 10.0 mi SE 9.2 mph - 0.03 in Rain Light Rain
11:53 PM 41.0 °F 35.2 °F 34.0 °F 76% 30.09 in 9.0 mi SSE 9.2 mph - 0.01 in Rain Light Rain